Location: *
(46.3500°N, 10.9000°E)
Time: 22:27:28
(UTC+00:00)

Cosmos 2369 Rocket - Pass Details

Date: 09 April 2020
Orbit: 829 x 852 km, 71.0° (Epoch: 24 May)

Event Time Altitude Azimuth Distance (km) Brightness Sun altitude
Rises 18:43:35 0° 325° (NW) 3,420 6.4 -8.6°
Reaches altitude 10° 18:46:18 10° 315° (NW) 2,477 5.9 -9.0°
Maximum altitude 18:51:11 30° 256° (WSW) 1,459 4.1 -9.8°
Drops below altitude 10° 18:56:01 10° 196° (SSW) 2,449 4.5 -10.6°
Sets 18:58:41 0° 186° (S) 3,374 5.1 -11.0°
